Theta_e
315 313 313 314 314 316 316 317 318 317 319 319 318 320 322 329 334 333 337 335 333 332 330 328 328 327 326 326 329 330 330 332 333 331 331 330 333 343 340 344 344 345 346 347
313 313 313 314 315 316 316 318 318 317 318 320 319 321 318 319 319 319 321 336 335 332 329 326 327 327 326 326 329 330 331 331 334 335 335 337 336 338 342 344 346 347 347 346
312 315 317 316 317 319 317 318 318 318 318 318 320 319 320 320 319 319 321 325 332 334 333 328 325 326 326 327 328 330 332 332 332 333 335 335 336 338 340 342 344 346 346 347
313 314 317 318 318 317 320 319 321 322 318 317 320 319 318 319 320 320 327 334 333 333 333 328 326 327 328 328 327 329 331 332 332 332 334 337 336 337 337 340 342 343 345 345
319 323 317 320 320 320 319 319 321 323 320 319 319 318 317 319 320 328 338 340 340 338 335 334 335 337 333 330 330 329 332 331 333 333 334 337 339 339 339 338 338 340 343 344
322 323 324 320 322 321 320 321 318 317 316 319 319 319 318 327 329 335 340 340 341 341 340 339 340 340 340 342 343 337 332 334 336 337 336 337 338 338 338 338 341 342 342 342
323 324 323 323 322 319 318 316 318 321 320 321 322 330 338 336 336 337 340 338 338 339 340 339 338 337 332 332 335 339 339 338 335 337 338 338 338 338 339 339 339 339 340 340
324 325 325 323 320 319 319 317 318 323 324 324 327 338 341 336 334 332 332 332 330 331 334 335 331 327 325 325 327 326 326 326 329 331 331 338 342 342 342 344 344 340 337 338
327 328 326 322 323 321 323 321 318 319 322 324 332 340 339 336 334 332 331 329 327 326 325 324 324 324 324 323 323 323 323 323 323 323 323 323 323 324 326 328 330 341 344 341
328 327 327 326 323 322 322 322 323 320 327 329 328 335 342 338 335 332 329 327 325 324 323 321 321 321 321 321 321 321 321 322 322 322 322 322 321 322 321 321 321 325 332 337
324 324 326 326 327 326 324 321 324 320 322 325 329 343 338 337 334 332 330 327 324 323 322 320 318 318 318 318 318 317 317 319 318 318 318 321 322 321 321 321 321 321 320 323
332 324 329 328 328 326 324 326 323 324 327 327 325 332 336 333 331 330 327 320 320 322 321 318 318 317 317 317 317 316 317 318 317 316 317 319 317 317 317 318 320 322 321 321
331 326 325 323 320 324 328 328 328 323 323 327 327 334 336 333 328 324 321 318 319 319 317 315 316 316 317 317 317 317 317 317 316 319 318 318 317 317 318 319 319 320 318 320
329 327 323 323 326 326 327 328 328 326 328 329 327 341 326 323 319 317 317 316 316 315 315 314 314 315 317 317 317 317 318 319 319 319 319 319 319 319 319 319 319 319 317 318
325 329 330 330 329 328 327 327 325 325 329 329 328 331 322 318 316 316 316 316 316 316 315 314 314 314 317 318 319 320 319 319 319 318 317 317 317 318 318 318 318 320 320 320
325 331 328 327 328 325 325 324 323 322 321 321 324 322 317 315 316 316 316 316 316 316 316 316 316 317 317 317 319 319 319 318 319 319 318 318 318 318 317 317 319 318 317 318
327 326 326 329 326 324 325 323 323 323 322 321 323 319 316 315 317 315 315 316 318 318 318 317 316 317 316 316 316 316 317 318 319 319 318 318 318 317 317 318 318 317 317 316
323 324 323 326 324 325 321 322 322 321 321 319 318 316 315 315 315 316 315 316 317 317 317 315 315 315 315 316 316 317 318 318 319 318 318 318 318 318 318 318 318 317 317 316
320 321 324 325 325 323 324 321 322 322 321 318 317 317 316 315 316 317 317 316 316 316 315 315 315 315 315 316 317 317 318 318 318 318 318 318 319 318 318 318 317 317 317 317
321 320 321 324 326 326 322 320 318 319 322 318 316 317 317 316 317 316 315 315 314 314 314 313 314 315 316 317 317 317 316 317 317 316 317 318 317 318 318 318 318 317 317 317
326 324 323 322 324 323 321 320 319 321 319 316 316 316 316 316 315 314 313 313 314 314 313 314 315 316 316 317 316 314 314 314 313 314 315 315 316 317 318 318 318 318 317 317
320 321 323 321 323 325 319 319 321 316 315 315 315 315 316 316 315 314 313 313 313 313 314 315 315 315 316 314 312 312 312 311 312 313 313 314 315 316 317 317 317 317 317 317
321 318 321 320 320 316 314 315 313 313 314 315 314 315 315 315 314 312 313 314 313 313 314 315 315 315 315 312 312 311 311 311 312 313 313 314 314 316 317 317 317 317 316 316
317 316 317 317 318 317 317 315 315 314 314 314 313 314 314 314 312 314 312 311 311 313 315 315 314 314 311 311 311 311 310 310 311 312 312 312 314 315 315 315 314 314 314 315
313 316 315 315 317 317 316 315 314 315 314 314 314 314 314 314 311 310 310 310 311 312 315 313 312 312 310 310 310 310 310 310 310 311 311 312 312 312 312 310 309 310 309 310
313 315 314 314 315 314 315 314 315 315 315 314 314 314 313 311 309 309 309 310 311 314 313 312 312 312 311 311 311 311 311 310 310 310 311 312 311 310 309 308 308 307 306 305
Wind_Speed
2 5 5 11 9 8 4 0 4 6 6 3 5 3 2 11 9 10 15 15 19 20 16 24 31 35 38 40 43 45 41 39 35 36 33 31 31 21 31 29 31 35 35 33
5 7 12 4 3 5 7 6 6 7 7 2 6 5 6 4 6 9 13 21 21 15 10 16 26 31 38 42 44 44 45 43 41 39 37 31 31 29 25 20 23 23 32 40
6 8 7 7 6 6 5 7 6 8 5 4 2 7 5 8 5 5 8 6 14 19 18 16 17 20 29 32 43 44 45 43 41 42 36 34 32 32 32 29 26 26 24 37
7 9 7 6 7 8 4 4 2 5 2 3 4 5 6 7 9 9 6 9 3 20 9 9 13 18 27 32 42 39 41 41 41 40 41 39 35 33 40 37 38 34 31 32
8 6 7 6 8 4 8 2 3 1 3 3 7 3 8 6 8 6 9 16 16 12 11 11 13 19 12 16 20 25 29 36 35 36 35 36 28 23 20 32 35 37 36 35
10 5 4 7 4 5 5 5 7 5 3 4 6 5 5 7 6 9 15 17 20 21 19 18 26 33 30 23 9 16 19 19 23 26 29 25 25 25 21 24 30 31 32 39
7 6 4 4 2 6 7 7 4 4 4 5 4 7 4 6 13 11 19 17 17 17 18 17 17 23 27 31 34 33 11 5 14 11 13 17 17 20 19 21 30 35 38 37
2 8 4 3 7 7 6 8 6 5 3 5 4 5 3 5 15 17 16 15 17 17 16 17 20 22 25 32 34 33 31 31 30 19 16 14 10 15 17 21 30 37 39 41
4 5 9 13 5 8 2 3 7 6 1 3 1 4 4 4 14 17 17 17 16 17 17 15 20 23 28 29 27 27 24 21 20 16 14 16 15 15 17 19 21 21 27 35
6 1 5 5 7 5 4 4 3 3 4 3 4 3 6 5 12 14 14 13 9 11 15 12 18 23 28 26 24 24 23 19 18 16 14 15 16 17 18 19 21 21 21 20
5 3 5 4 3 0 5 4 6 5 4 5 2 4 3 5 9 13 11 9 8 8 10 10 15 21 24 24 23 21 20 17 17 19 20 20 19 20 22 25 26 24 25 24
1 5 3 4 2 3 3 2 4 5 3 0 4 3 5 6 7 9 13 13 12 14 13 10 16 21 24 24 24 22 19 14 18 22 20 16 21 26 33 31 28 25 28 27
0 2 3 8 6 7 5 5 4 5 3 4 5 3 2 3 10 7 9 10 11 11 10 8 15 16 19 19 19 20 20 19 21 20 20 25 27 28 26 26 33 31 33 33
7 4 5 6 3 3 3 5 4 5 3 3 4 10 4 4 9 8 10 9 8 7 7 6 8 12 15 14 15 16 18 18 19 19 21 24 27 28 29 31 31 29 36 39
5 4 2 1 1 1 1 5 2 3 3 3 5 7 7 5 7 7 7 7 9 8 8 7 7 10 17 19 21 17 18 21 22 27 28 29 29 28 32 34 33 32 33 38
3 2 2 6 6 7 4 7 6 5 2 3 14 10 5 4 8 8 7 7 7 6 7 8 10 17 18 23 21 22 22 24 24 24 25 29 28 28 32 32 28 34 38 37
3 4 3 1 5 5 5 6 5 6 4 3 7 8 5 8 10 6 7 8 8 8 8 9 9 14 19 20 23 23 24 25 24 25 27 27 28 30 31 31 33 35 36 33
4 4 3 2 4 1 4 8 15 16 9 12 15 7 6 9 6 7 7 7 7 5 4 5 9 11 17 21 22 26 26 26 24 25 26 27 27 28 30 29 33 34 34 31
6 5 2 4 4 5 1 2 1 5 2 3 8 6 5 7 6 4 6 3 2 3 3 5 12 14 20 22 25 26 26 25 24 25 26 28 29 30 30 29 30 33 34 34
5 5 5 3 5 7 4 3 3 5 3 3 7 6 5 3 2 4 4 3 3 8 12 16 17 19 20 24 25 26 24 24 24 29 30 29 31 32 31 33 33 33 34 35
3 2 6 3 3 5 4 3 1 5 5 7 8 7 5 4 5 6 5 5 8 13 15 17 18 20 22 21 22 23 23 21 27 29 30 30 31 31 31 31 32 33 34 34
7 6 4 3 2 7 6 4 3 5 4 7 6 5 5 2 3 4 4 5 10 12 15 17 17 19 19 21 24 20 20 28 28 28 29 28 31 32 31 31 32 32 32 31
1 5 5 6 5 2 4 7 5 7 8 4 6 3 2 3 4 6 2 2 5 8 14 14 15 15 15 25 21 21 23 27 28 28 27 26 28 31 31 29 29 29 28 28
6 1 4 4 3 5 10 6 6 6 7 7 5 3 2 0 5 1 3 1 6 8 12 12 13 14 20 25 24 21 22 25 28 27 25 27 25 29 27 28 27 28 29 29
4 3 4 5 7 9 4 5 6 6 6 5 3 2 0 3 4 5 1 3 6 7 9 11 10 11 17 22 23 21 23 24 26 24 23 22 24 24 23 23 25 29 30 32
2 5 4 4 5 5 5 6 7 6 5 5 3 1 5 11 6 4 2 3 5 5 8 10 11 12 15 18 22 23 28 25 23 23 23 22 23 22 22 26 25 27 31 37
Wind_Direction
316 80 201 212 190 215 222 312 283 269 264 268 301 299 249 166 181 179 201 197 194 205 191 190 192 182 182 181 183 185 187 189 189 191 202 207 210 211 214 221 221 218 213 216
14 230 228 232 263 247 241 254 265 278 273 57 329 307 293 250 205 206 181 199 201 191 178 185 181 177 179 183 186 190 192 193 193 196 200 207 216 223 225 221 225 226 223 217
173 238 197 188 255 253 227 186 223 232 323 326 328 328 330 302 297 273 53 157 182 184 186 185 174 169 173 179 189 194 197 199 202 206 206 211 220 228 231 232 233 231 228 224
222 266 226 229 227 179 186 214 300 332 27 243 38 270 294 294 306 59 41 55 120 187 167 131 136 145 167 183 195 200 201 201 205 209 209 212 212 214 225 229 231 234 237 235
252 298 225 227 203 154 229 205 246 206 60 64 322 38 270 348 24 96 80 76 67 75 90 100 93 101 129 189 202 204 204 208 208 213 215 217 221 234 240 238 240 240 242 246
249 240 233 210 178 176 141 65 39 44 57 6 258 135 338 341 137 119 85 77 80 85 84 82 84 85 80 82 94 228 223 211 214 219 218 222 227 235 241 247 249 247 247 249
325 296 279 221 108 17 78 60 7 357 15 224 66 68 307 357 67 80 93 81 79 83 86 83 77 74 67 66 65 62 115 197 226 241 247 255 252 257 257 255 254 254 253 253
234 322 192 202 166 179 182 144 150 190 201 257 6 140 140 97 82 84 78 84 82 82 82 80 81 78 75 72 71 68 65 64 71 68 44 26 4 317 323 309 292 273 266 264
192 267 284 159 145 127 194 178 180 107 320 74 176 63 51 106 89 84 87 86 82 87 89 91 85 77 70 69 69 69 68 64 57 50 25 10 5 357 354 348 350 329 292 277
219 275 335 29 62 25 138 171 68 9 127 182 275 181 185 158 111 101 97 91 89 93 95 99 100 96 87 77 67 59 51 46 38 27 19 4 353 347 342 340 336 333 335 335
155 109 296 39 80 194 352 357 60 116 116 159 156 269 215 150 124 111 108 102 94 70 74 72 68 68 65 60 55 50 38 29 16 4 356 348 348 344 338 332 331 330 329 329
22 132 137 206 263 245 166 9 118 113 237 97 138 291 358 145 120 93 88 90 79 81 86 75 66 54 42 33 26 21 17 13 355 342 339 342 338 332 326 323 322 321 322 321
255 28 49 341 358 6 48 16 48 102 85 195 139 189 27 69 81 78 100 80 88 82 71 62 56 46 35 25 16 7 359 345 341 341 337 328 324 322 315 318 315 314 318 312
90 81 140 185 177 211 334 331 63 97 105 208 200 133 45 78 92 73 81 90 93 88 85 75 49 34 22 11 1 351 351 356 358 353 343 336 332 330 323 320 310 310 311 307
82 95 59 98 151 344 271 297 344 141 181 156 149 128 180 171 105 104 104 80 63 49 39 31 28 23 25 16 3 7 356 348 344 336 333 328 327 319 320 316 315 318 313 306
14 171 102 355 20 22 324 297 295 259 153 130 113 110 182 133 109 85 72 71 61 43 31 27 24 13 13 3 356 344 339 334 329 326 324 327 321 315 318 316 312 316 312 310
103 117 79 243 352 21 328 276 228 78 10 181 154 158 172 92 90 79 63 49 40 33 24 19 8 360 346 337 329 327 328 328 322 320 319 317 315 308 309 310 309 312 311 309
113 93 101 173 47 321 254 19 102 94 52 62 88 101 100 118 109 89 70 68 49 32 24 351 330 324 335 335 332 331 331 330 321 318 314 315 314 306 302 302 303 303 305 302
147 118 113 148 178 279 4 86 272 137 26 46 88 73 48 124 131 91 84 112 182 240 250 306 336 337 337 341 344 339 334 329 325 322 318 314 313 310 304 302 300 296 297 298
62 102 127 152 160 214 223 146 122 133 137 126 108 93 81 50 76 280 312 276 43 22 0 346 342 341 344 345 346 346 336 332 333 329 322 317 313 309 302 300 300 296 293 292
115 33 165 152 199 275 170 293 61 147 187 134 126 131 113 121 195 228 271 38 26 7 359 353 348 344 346 354 351 342 337 336 330 327 325 322 317 313 310 306 305 303 298 293
166 151 189 103 129 274 174 51 155 166 105 139 125 140 119 162 307 310 4 24 13 1 353 351 346 347 355 358 358 347 339 336 331 325 322 320 323 321 315 311 309 307 300 295
147 176 181 170 207 238 29 127 119 131 128 129 116 130 105 358 314 315 152 34 341 348 349 348 348 357 3 352 355 346 339 334 326 324 322 328 329 329 330 321 318 315 311 304
329 69 92 81 13 69 96 80 102 115 118 131 145 143 101 248 319 153 125 343 333 355 4 19 17 7 357 358 353 342 334 336 334 327 326 326 325 329 330 330 327 323 320 315
214 47 103 61 90 86 60 109 126 113 124 120 111 159 156 90 92 101 95 326 334 1 26 13 6 353 355 0 357 347 341 336 335 328 326 327 338 332 332 334 330 327 324 321
201 174 147 201 194 139 171 163 142 137 156 166 152 325 67 133 134 110 59 0 349 33 13 3 355 342 345 345 345 354 356 345 337 338 337 335 332 333 338 335 332 335 330 334